SCP
0 0 0 0 0 0 0 0 0 0 0 0 0 0 0 0 0 0 0 0 0 0 0 0 0 0 0 0 0 0 0 0 0 0 0 0 0 0 0 0 0 0 0
0 0 0 0 0 0 0 0 0 0 0 0 0 0 0 0 0 0 0 0 0 0 0 0 0 0 0 0 0 0 0 0 0 0 0 0 0 0 0 0 0 0 0
0 0 0 0 0 0 0 0 0 0 0 0 0 0 0 0 0 0 0 0 0 0 0 0 0 0 0 0 0 0 0 0 0 0 0 0 0 0 0 0 0 0 0
0 0 0 0 0 0 0 0 0 0 0 0 0 0 0 0 0 0 0 0 0 0 0 0 0 0 0 0 0 0 0 0 0 0 0 0 0 0 0 0 0 0 0
0 0 0 0 0 0 0 0 0 0 0 0 0 0 0 0 0 0 0 0 0 0 0 0 0 0 0 0 0 -0 0 0 0 0 0 0 0 0 0 0 0 0 0
0 0 0 0 0 0 0 0 0 0 0 0 0 0 0 0 0 0 0 0 0 0 0 0 0 0 0 0 0 0 0 0 0 0 0 0 0 0 0 0 0 0 0
0 0 0 0 0 0 0 0 0 0 0 0 0 0 0 0 0 0 0 0 0 0 0 0 0 0 0 0 0 0 0 0 0 0 0 0 0 0 0 0 0 0 0
0 0 0 0 0 0 0 0 0 0 0 0 0 0 0 0 0 0 0 0 0 0 0 0 0 0 0 0 0 0 0 0 0 0 0 0 0 0 0 0 0 0 0
-0 -0 0 0 0 0 0 0 0 0 0 0 0 0 0 0 0 0 0 0 0 0 0 0 0 0 0 0 0 0 0 0 0 0 0 0 0 0 0 0 0 0 0
0 -0 0 0 0 0 0 0 0 0 0 0 0 0 0 0 0 0 0 0 0 0 0 0 0 0 0 0 0 0 0 0 0 0 0 0 0 0 0 0 0 0 0
0 0 0 0 0 0 0 0 0 0 0 0 0 0 0 0 0 0 0 0 0 0 0 0 0 0 0 0 0 0 0 0 0 0 0 0 0 0 0 0 0 0 0
0 0 0 0 0 0 0 0 0 0 0 0 0 0 0 0 0 0 0 0 0 0 0 0 0 0 0 0 0 0 0 0 0 0 0 0 0 0 0 0 0 0 0
0 0 0 0 0 0 0 0 0 0 0 0 0 0 0 0 0 0 0 0 0 0 0 0 0 0 0 0 0 0 0 0 0 0 0 0 0 0 0 0 0 0 0
0 0 0 0 0 0 0 0 0 0 0 0 0 0 0 0 0 0 0 0 0 0 0 0 0 0 0 0 0 0 0 0 0 0 0 0 0 0 0 0 0 0 0
0 0 0 0 0 0 0 0 0 0 0 0 0 0 0 0 0 0 0 0 0 0 0 0 0 0 0 0 0 0 0 0 0 0 0 0 0 0 0 0 0 0 0
0 0 0 0 0 0 0 0 0 0 0 0 0 0 0 0 0 0 0 0 0 0 0 0 0 0 0 0 0 0 0 0 0 0 0 0 0 0 0 0 0 0 0
0 0 0 0 0 0 0 0 0 0 0 0 0 0 0 0 0 0 0 0 0 0 0 0 0 0 0 0 0 0 0 0 0 0 0 0 0 0 0 0 0 0 0
0 0 0 0 0 0 0 0 0 0 0 0 0 0 0 0 0 0 0 0 0 0 0 0 0 0 0 0 0 0 0 0 0 0 0 0 0 0 0 0 0 0 0
0 0 0 0 0 0 0 0 0 0 0 0 0 0 0 0 0 0 0 0 0 0 0 0 0 0 0 0 0 0 0 0 0 0 0 0 0 0 0 0 0 0 0
0 0 0 0 0 0 0 0 0 0 0 0 0 0 0 0 0 0 0 0 0 0 0 0 0 0 0 0 0 0 0 0 0 0 0 0 0 0 0 0 0 0 0
0 0 0 0 0 0 0 0 0 0 0 0 0 0 0 0 0 0 0 0 0 0 0 0 0 0 0 0 0 0 0 0 0 0 0 0 0 0 0 0 0 0 0
0 0 0 0 0 -0 0 0 0 0 0 0 0 0 0 0 0 0 0 0 0 0 0 0 0 0 0 0 0 0 0 0 0 0 0 0 0 0 0 0 0 0 0
0 0 0 0 0 0 0 0 0 0 0 0 0 0 0 0 0 0 0 0 0 0 0 0 0 0 0 0 0 0 0 0 0 0 0 0 0 0 0 0 0 0 0
0 0 0 0 0 0 0 0 0 0 0 0 0 0 0 0 0 0 0 0 0 0 0 0 0 0 0 0 0 0 0 0 0 0 0 0 0 0 0 0 0 0 0
0 0 0 0 0 0 0 0 0 0 0 -0 0 0 0 0 0 0 0 0 0 0 0 0 0 0 0 0 0 0 0 0 0 0 0 0 0 0 0 0 0 0 0
-0 0 0 0 0 0 0 0 0 -0 -0 -0 -0 0 0 0 0 0 0 0 0 0 0 0 0 0 0 0 0 0 0 0 0 0 0 0 0 0 0 0 0 0 0
Wind_Speed
2 3 3 4 5 4 4 6 6 4 4 3 3 3 2 1 1 1 2 2 3 3 3 3 2 2 2 2 2 1 2 2 1 1 3 3 2 2 2 2 2 3 3
3 3 3 4 5 4 4 5 6 5 4 3 2 2 3 2 2 1 2 2 2 3 3 3 2 2 2 2 2 2 1 1 2 1 1 3 4 3 3 2 1 2 2
5 4 4 4 6 6 6 6 6 5 4 4 4 3 3 3 2 2 1 2 1 2 2 3 3 2 2 2 1 2 2 1 1 1 1 1 1 3 3 3 3 3 2
5 5 6 6 6 6 6 6 5 5 5 5 5 5 4 3 2 1 1 1 2 1 2 3 3 3 2 2 1 2 1 2 0 1 0 1 2 1 3 3 3 4 3
7 7 8 8 7 6 6 6 5 5 4 4 5 5 4 2 2 2 2 2 2 2 2 2 2 2 2 2 2 2 2 1 2 1 0 0 0 1 2 3 4 3 3
7 7 7 7 6 6 6 6 6 4 4 5 5 6 6 5 4 2 2 1 1 1 1 2 2 2 1 2 2 2 2 2 2 1 1 1 1 2 2 3 3 3 3
8 8 8 8 8 8 7 7 7 5 5 5 5 5 5 5 5 4 3 2 1 0 0 1 1 1 1 2 2 2 2 2 2 2 2 2 2 2 2 2 3 3 3
8 9 9 9 9 9 8 8 7 6 6 6 5 4 5 4 3 3 3 3 2 2 2 1 1 1 1 1 1 1 2 2 2 3 3 2 3 3 3 3 2 2 2
10 10 9 9 9 9 9 9 9 7 6 6 5 5 5 4 4 4 3 2 2 2 2 2 2 2 2 2 2 2 2 2 2 3 3 3 3 3 3 3 3 3 3
9 9 9 9 9 9 8 8 8 8 7 6 6 5 5 5 4 4 4 3 3 2 2 2 2 2 2 2 2 2 2 3 3 3 3 3 3 3 3 3 4 4 4
11 10 9 9 8 7 8 8 8 7 6 7 6 5 5 4 4 4 4 3 3 3 3 3 3 3 3 3 3 3 4 4 4 3 4 5 4 3 3 3 3 4 4
9 9 9 8 8 9 8 9 9 8 8 7 6 6 5 4 4 4 4 4 4 4 4 3 3 4 4 3 4 5 4 5 5 5 5 6 4 4 4 3 4 4 5
8 7 7 8 9 10 9 9 9 9 8 7 7 6 6 6 6 5 5 4 4 4 4 4 4 5 4 4 5 5 5 6 6 6 6 6 5 6 5 5 5 4 5
9 9 9 9 9 9 9 10 9 8 8 8 8 7 7 7 7 6 5 5 5 5 5 5 5 5 5 5 5 5 6 6 6 6 7 7 7 7 7 5 6 5 5
8 10 11 10 9 9 9 9 9 8 8 8 8 9 7 6 6 6 6 5 5 6 5 5 5 5 5 6 6 6 6 6 7 7 7 8 9 11 8 6 6 6 5
10 10 9 9 10 11 11 9 9 8 8 9 9 8 6 6 7 7 6 5 6 5 5 6 6 6 6 8 10 7 6 7 7 8 8 8 9 11 12 12 11 9 8
9 9 10 11 11 11 10 11 10 8 9 9 8 7 7 7 8 7 6 6 7 5 6 6 7 7 9 11 11 11 7 8 8 9 8 7 7 8 7 9 10 10 12
7 8 8 9 8 8 8 7 7 8 8 8 8 7 8 8 7 6 7 7 5 5 6 7 7 7 9 12 12 12 8 8 9 9 9 9 9 8 8 8 8 9 9
5 6 7 6 6 7 7 6 6 7 7 8 8 8 8 7 7 7 8 6 5 6 6 6 7 8 10 12 13 11 6 7 10 10 9 10 10 12 11 8 9 9 9
1 1 3 4 4 4 6 7 6 6 8 9 8 7 7 7 8 8 7 5 5 7 6 7 8 9 10 12 13 11 6 8 8 8 8 12 13 13 11 9 9 10 10
3 3 4 4 3 4 6 5 5 7 8 5 5 4 5 6 6 5 4 4 5 5 6 7 8 8 11 12 14 12 7 8 8 7 7 7 12 14 13 11 10 12 10
5 4 4 3 3 5 6 5 5 4 2 3 3 3 3 3 3 3 4 4 5 5 6 6 8 7 8 10 12 13 13 11 9 9 8 8 11 12 12 10 11 14 10
4 4 4 5 4 4 4 4 2 2 3 3 2 1 1 1 2 3 4 3 3 4 5 5 7 7 6 7 13 14 14 14 10 9 11 11 11 10 10 12 13 10 7
5 4 6 6 5 4 3 2 2 3 4 3 1 1 0 0 1 2 2 3 4 4 5 6 7 7 7 7 6 6 7 9 9 9 9 10 10 9 10 9 8 7 7
5 5 6 5 4 4 4 3 3 4 5 3 2 2 1 1 2 2 3 4 5 6 6 6 7 7 8 10 10 7 6 6 5 4 4 4 4 5 6 6 7 6 6
5 5 6 5 4 4 3 3 3 4 4 3 2 1 1 1 2 3 4 5 8 10 11 13 11 9 13 15 15 13 13 11 7 5 5 6 7 7 7 7 7 6 7
Wind_Direction
152 145 145 148 138 129 133 134 138 143 134 123 123 119 115 102 86 98 115 118 124 126 124 121 111 107 101 93 88 88 59 23 0 8 336 327 325 313 299 296 289 293 287
140 136 157 168 146 140 153 151 155 154 149 137 128 126 121 110 96 72 83 99 126 137 142 138 134 125 111 95 85 94 91 22 27 71 34 349 342 341 357 344 343 333 321
171 165 168 174 149 161 170 167 159 149 140 128 113 93 74 61 59 54 51 38 104 142 143 147 141 137 130 136 129 125 130 118 14 51 125 122 294 314 326 343 353 344 334
179 174 171 180 177 178 165 157 149 140 138 136 136 135 135 141 160 136 91 47 60 104 142 145 148 147 144 150 163 135 134 135 138 355 14 181 184 242 315 322 335 341 339
188 183 181 186 183 174 162 153 146 143 143 142 140 132 128 136 124 105 93 66 43 53 102 138 148 154 156 167 168 145 143 151 168 189 197 118 86 202 230 293 318 327 317
189 183 180 175 176 165 157 153 151 152 149 143 141 145 147 147 138 135 128 93 48 33 61 115 134 153 164 181 185 176 171 178 182 190 189 189 198 207 211 253 286 300 300
183 177 176 179 180 173 169 164 161 163 159 152 155 161 160 158 161 165 165 159 156 182 187 124 145 165 195 199 185 186 198 194 200 209 213 216 222 210 202 226 263 282 294
187 188 188 185 183 178 173 169 170 172 169 167 171 170 165 162 168 173 173 181 190 203 201 186 200 213 218 213 197 209 224 210 218 227 222 228 235 220 211 213 225 274 289
194 195 190 187 183 179 180 179 177 178 180 178 172 175 176 176 179 178 177 186 200 207 202 205 213 231 235 227 209 224 237 229 233 237 235 236 242 231 228 223 214 227 268
197 195 191 190 188 185 179 174 178 184 183 180 182 185 186 186 181 173 186 199 208 208 206 222 231 243 243 230 217 232 236 234 244 237 237 242 244 244 234 227 222 219 234
199 197 194 189 183 174 172 177 182 180 182 186 188 185 186 185 182 190 204 204 207 208 216 226 232 241 245 237 227 239 240 240 251 248 241 251 249 248 244 232 225 223 219
201 197 189 179 177 179 181 185 185 186 191 187 183 188 186 182 191 207 215 209 215 219 222 226 233 243 245 240 236 250 248 244 253 255 248 255 252 248 247 240 238 234 224
196 191 184 184 189 188 187 189 190 194 189 180 181 186 188 192 204 213 215 211 215 224 226 224 233 242 246 247 246 247 253 251 252 253 251 255 250 254 249 242 244 244 241
193 190 192 194 193 190 188 189 193 191 183 179 183 192 199 202 208 211 212 213 216 222 228 229 235 241 247 250 252 250 252 254 255 253 251 252 247 250 251 248 245 243 245
195 198 200 197 190 187 189 191 192 187 180 180 190 203 205 205 207 210 215 216 219 227 229 234 242 244 245 247 247 246 250 251 258 260 255 254 253 250 245 245 243 238 242
202 200 197 191 191 193 192 190 193 187 176 185 199 202 195 198 209 216 215 217 226 230 228 234 241 247 247 249 250 245 248 251 254 262 263 261 261 261 258 253 248 235 236
204 196 192 192 193 194 189 191 192 177 179 192 199 197 196 203 212 214 213 220 226 226 231 237 238 245 252 254 258 254 247 249 251 253 259 263 260 254 258 263 263 255 244
202 203 198 194 189 183 182 181 168 173 186 196 201 199 199 208 210 207 218 224 220 222 231 238 238 244 255 255 255 256 250 251 252 249 248 252 260 256 250 258 263 262 257
212 202 194 190 179 172 170 157 166 174 185 201 208 206 200 204 206 212 222 220 216 226 229 235 237 242 257 257 256 252 247 251 256 253 247 243 251 254 246 246 256 265 267
43 140 136 127 149 163 147 154 173 180 200 206 207 202 195 200 210 218 223 218 218 232 236 242 241 241 252 257 254 245 237 249 256 257 250 241 241 249 244 237 243 257 265
58 79 105 124 144 135 138 158 174 202 211 196 186 186 194 205 216 221 222 224 228 238 243 251 256 251 251 259 259 246 228 238 249 254 255 248 238 241 244 237 237 244 254
60 75 95 97 94 122 142 162 199 216 167 155 172 193 202 212 218 220 234 233 231 241 252 259 268 264 256 251 257 252 236 230 237 248 252 251 247 244 246 243 241 245 249
61 74 96 89 74 100 132 155 197 125 127 136 169 209 209 209 217 225 242 246 239 245 258 260 266 272 269 260 252 255 251 237 231 244 246 250 253 254 254 248 246 245 241
63 72 87 85 73 74 96 119 115 119 116 117 118 103 87 307 251 231 234 243 251 256 261 263 266 270 273 272 266 258 256 249 239 244 252 255 255 251 253 257 251 240 234
62 74 86 89 84 80 77 74 87 104 103 98 86 69 41 326 303 288 262 258 254 247 252 263 262 266 271 268 262 261 259 249 244 241 247 248 248 250 250 250 250 245 237
71 77 82 85 80 80 71 57 70 91 96 83 64 45 4 321 305 302 301 274 264 275 266 256 255 260 258 270 278 273 263 256 238 215 239 247 247 249 253 255 257 249 241